Regional Weather Roundup
Issued by NWS

Home | Current Version | Previous Version | Text Only | Print | Product List | Glossary On
Versions: 1 2 3 4 5 6 7 8 9 10 11 12 13 14 15 16 17 18 19 20 21 22 23 24 25 26 27 28 29 30 31 32 33 34 35 36 37 38 39 40 41 42 43 44 45 46 47 48 49 50
000
ASUS45 KCYS 271010
RWRWY

WYOMING REGIONAL WEATHER ROUNDUP
NATIONAL WEATHER SERVICE CHEYENNE WY
400 AM MDT WED AUG 27 2014

NOTE:  "FAIR" INDICATES FEW OR NO CLOUDS BELOW 12,000 FEET
WITH NO SIGNIFICANT WEATHER AND/OR OBSTRUCTIONS TO VISIBILITY.

WYZ001-271100-
YELLOWSTONE NATIONAL PARK

CITY           SKY/WX    TMP DP  RH WIND       PRES   REMARKS
LK YELLOWSTONE   N/A     34  33  96 NW3       30.38S
W YELLOWSTONE  NOT AVBL

$$
WYZ002>013-054>058-071-098>099-271100-
NORTHERN WYOMING

CITY           SKY/WX    TMP DP  RH WIND       PRES   REMARKS
JACKSON        MOCLDY    45  43  93 CALM      30.29S
CODY           PTCLDY    55  46  71 S5        30.19S
GREYBULL       CLEAR     57  48  72 E5        30.14S
WORLAND        NOT AVBL
SHERIDAN       CLEAR     50  45  83 CALM      30.15S
BUFFALO        CLEAR     57  46  66 SW5       30.21S
GILLETTE       CLEAR     53  51  93 S6        30.17F
HULETT         FAIR      52  48  87 MISG      30.18
NEWCASTLE      FAIR      63  54  72 NE7       30.15

$$
WYZ014>020-022>026-101>103-271100-
CENTRAL WYOMING

CITY           SKY/WX    TMP DP  RH WIND       PRES   REMARKS
BIG PINEY      CLOUDY    48  45  89 CALM      30.30S
PINEDALE       CLOUDY    46  45  93 W5        30.31S
DUBOIS         PTSUNNY   45  37  76 NW7       30.32S
LANDER         MOCLDY    59  47  64 NW13      30.20F
RIVERTON       PTCLDY    56  47  71 E5        30.21S
CASPER         CLOUDY    56  51  84 N5        30.20F
DOUGLAS        FOG       55  55 100 CALM      30.19F VSB 3/4

$$
WYZ021-027>030-104>119-271100-
SOUTHERN WYOMING

CITY           SKY/WX    TMP DP  RH WIND       PRES   REMARKS
EVANSTON       CLOUDY    50  44  80 CALM      30.29R
KEMMERER       CLOUDY    50  45  81 NE5       30.30S
FORT BRIDGER   CLOUDY    53  47  80 W7        30.30S
ROCK SPRINGS   LGT RAIN  52  45  77 E6        30.29R
DIXON          LGT RAIN  53  50  87 CALM      30.31R
RAWLINS        CLOUDY    54  46  74 CALM      30.25F
SARATOGA       CLOUDY    50  46  87 MISG      30.27F
LARAMIE        CLOUDY    51  45  79 N5        30.27S
CHEYENNE       CLOUDY    55  50  83 NW3       30.22S
TORRINGTON     MOCLDY    60  58  92 CALM      30.13F
PINE BLUFFS    FAIR      54  54 100 CALM      30.18S

$$


USA.gov is the U.S. government's official web portal to all federal, state and local government web resources and services.